2022-047AJ (52426 NORAD) Tracking and Keplerian Element Data

This shows tracking and keplerian element data for the satellite.

Feedback or suggestion? Click here.




ElementValue
Catalog52426
Name2022-047AJ
Epoch Orbit812
Epoch Day166.97908041
Epoch Year2022
RAAN251.8664
Inclination97.451
Eccentricity0.0009432
Argument of Perigee197.6182
Mean Anonmoly162.4723
Mean Motion15.12907286
Decay Rate0.00017778
L11 52426U 22047AJ 22166.97908041 .00017778 00000+0 10106-2 0 9998
L22 52426 97.4510 251.8664 0009432 197.6182 162.4723 15.12907286 8128

Live tracking and technical data element details for 2022-047AJ (NORAD 52426). 2022-047AJ can be tracked NOW for your location showing map with azimuth and elevation plus other details from your city location.

Track the satellite on the map from your city or location and see movement details for azimuth, elevation, latitude, longitude, range, height, and movement on the map or in text.







IsCatalogInMostPopularTable: catalog: 52426, numindb: 1
Update: records affected: 1



GetName: 52426 2022-047AJ

Hit Count: updated at: Mon, 27 Jun 2022 04:43:00 GMT